Flag for U.S.A. Weather past 2 weeks in El Paso, Texas, U.S.A.

Now
78 °F

Overcast.


Feels Like: 80 °F
Forecast: 71 / 95 °F
Wind: 7 mph from Northwest

Location: El Paso International Airport

Current Time: Jul 31, 2015 at 2:25:42 AM

Latest Report: Jul 31, 2015 at 1:51 AM


Visibility: 10 mi

Pressure: 29.99 "Hg (26.32 "Hg at 1142m altitude)

Humidity: 66%

Dew point: 66 °F

Location of El PasoLocation

Historic Weather in El Paso — Graph

°F

El Paso temperature yesterday

Maximum temperature yesterday: 90 °F (at 4:51 PM)
Minimum temperature yesterday: 68 °F (at 3:51 AM)
Average temperature yesterday: 77 °F

Past Weeks' High & Low Weather Summary

 TemperatureHumidityPressure
High100 °F (Jul 25, 3:51 PM)93% (Jul 30, 3:51 AM)30.26 "Hg (Jul 30, 3:51 AM)
Low68 °F (Jul 30, 3:51 AM)17% (Jul 24, 5:51 PM)29.64 "Hg (Jul 27, 6:51 PM)
Average85 °F43%29.81 "Hg
* Reported Jul 16 12:51 AM — Jul 31 12:51 AM, El Paso, Weather by CustomWeather, © 2015

Note: Actual official high and low records may vary slightly from our data, if they occured in-between our weather recording intervals... More about our weather records

Advertising

El Paso weather history for previous 24 hours

 ConditionsComfort  
Time TempWeatherWind HumidityBarometerVisibility
12:51 AM
Fri, Jul 31
76 °FMostly cloudy.5 mph74%29.99 "Hg10 mi
11:51 PM
Thu, Jul 30
80 °FPartly cloudy.6 mph56%29.98 "Hg10 mi
10:51 PM81 °FPassing clouds.6 mph54%29.98 "Hg10 mi
9:51 PM82 °FPassing clouds.10 mph49%29.97 "Hg10 mi
8:51 PM83 °FBroken clouds.8 mph46%29.96 "Hg10 mi
7:51 PM80 °FBroken clouds.3 mph52%29.96 "Hg10 mi
6:51 PM81 °FBroken clouds.12 mph53%29.95 "Hg10 mi
5:51 PM90 °FBroken clouds.7 mph34%29.92 "Hg10 mi
4:51 PM90 °FScattered clouds.No wind34%29.91 "Hg10 mi
3:51 PM88 °FPassing clouds.5 mph36%29.94 "Hg10 mi
2:51 PM87 °FPassing clouds.No wind40%29.96 "Hg10 mi
1:51 PM84 °FPassing clouds.3 mph45%30.01 "Hg10 mi
12:51 PM81 °FScattered clouds.6 mph51%30.03 "Hg10 mi
11:51 AM78 °FScattered clouds.12 mph62%30.04 "Hg10 mi
10:51 AM75 °FScattered clouds.14 mph69%30.06 "Hg10 mi
10:02 AM70 °FBroken clouds.13 mph84%30.26 "Hg10 mi
9:51 AM70 °FPartly sunny.14 mph84%30.07 "Hg10 mi
8:51 AM68 °FLight rain. Broken clouds.18 mph93%30.06 "Hg10 mi
7:51 AM68 °FLight rain. Broken clouds.10 mph93%30.07 "Hg10 mi
6:51 AM69 °FMostly cloudy.10 mph87%30.06 "Hg7 mi
5:51 AM69 °FLight rain. Mostly cloudy.12 mph87%30.04 "Hg7 mi
4:51 AM69 °FThunderstorms. Fog.15 mph90%30.01 "Hg6 mi
4:04 AM68 °FThunderstorms. Fog.8 mph93%30.22 "Hg4 mi
3:51 AM68 °FStrong thunderstorms. Fog.12 mph93%30.01 "Hg2 mi
2:51 AM74 °FThunderstorms. Partly cloudy.12 mph71%29.98 "Hg10 mi
Weather by CustomWeather, © 2015

See weather overviewHow to use our weather pages